sat.trackr.live / text

‹ back to catalog

STARLINK-2440

NORAD 48105 · 2021-027P

PAYLOAD ACTIVE UNKNOWN

§ Identity

Operator
Country
US
Launch date
2021-04-07
Launch site
AFETR
Launch vehicle
Mass (kg)
RCS (m²)

Purposes: comms

External: N2YO · Heavens-Above · Gunter

§ Orbital elements

Epoch: 2026-09-19T14:11:23.887680Z

Period
94.01 min
Inclination
53.1606°
Eccentricity
0.0001444
Mean motion
15.31723866 rev/d
Perigee alt
469.7 km
Apogee alt
471.7 km
Semi-major
6,848.8 km
B*
8.7840e-5
RAAN
278.8615°
Arg perigee
78.6766°
Mean anomaly
281.4397°
Rev number
30,311

§ Raw data

STARLINK-24401 48105U 21027P   26262.59124870  .00002363  00000+0  87840-4 0  99982 48105  53.1606 278.8615 0001444  78.6766 281.4397 15.31723866303115

JSON: /api/v1/satellites/48105 · /tle

For live sub-satellite position, see the globe view (requires WebGL).

§ Visibility from observer

Set your observer location to see the next 7 days of passes ≥ 10°. The values pass through the URL so the page stays shareable.

No JS? Fill the form by hand. The geolocation button needs JavaScript.